Location: Climax
(33.2048°N, 96.4497°W)
Time: 11:34:42
(UTC+00:00)

Cosmos 1805 Rocket - Pass Details

Date: 03 July 2022
Orbit: 605 x 629 km, 82.5° (Epoch: 09 August)

Event Time Altitude Azimuth Distance (km) Brightness Sun altitude
Exits shadow 08:44:00 10° 124° (SE) 1,987 6.1 -25.4°
Maximum altitude 08:46:37 16° 87° (E) 1,643 6.1 -25.1°
Drops below altitude 10° 08:49:15 10° 50° (NE) 1,992 7.1 -24.8°
Sets 08:52:14 0° 29° (NNE) 2,897 8.4 -24.4°
